Torreon, Mexico

2:53 AM CST on January 23, 2018 (GMT -0600)
Torreon International

Weather History for MMTC - September, 2013

Change the Weather History Date:

Friday, September 27, 2013

  Actual Average Record
Temperature  
Mean Temperature 83 °F -  
Max Temperature 97 °F 82 °F 97 °F (2013)
Min Temperature 69 °F 61 °F 59 °F (2002)
Cooling Degree Days 18    
Growing Degree Days 33 (Base 50)    
Moisture  
Dew Point 60 °F    
Average Humidity 46    
Maximum Humidity 78    
Minimum Humidity 28    
Precipitation  
Precipitation 0.00 in - - ()
Sea Level Pressure  
Sea Level Pressure 29.75 in    
Wind  
Wind Speed 3 mph ()    
Max Wind Speed 23 mph    
Max Gust Speed -    
Visibility 10.0 miles    
Events      
Averages and records for this station are not official NWS values.
T = Trace of Precipitation, MM = Missing Value Source: Averaged Metar Reports

Daily Weather History Graph

Daily Weather History Graph

Search for Another Location

Airport or City:

Trip Planner

Search our weather history database for the weather conditions in past years. The results will help you decide how hot, cold, wet, or windy it might be!

Date:

Astronomy

Sep. 27, 2013 Rise Set
Actual Time 7:44 AM CDT 7:44 PM CDT
Civil Twilight 7:21 AM CDT 8:07 PM CDT
Nautical Twilight 6:54 AM CDT 8:33 PM CDT
Astronomical Twilight 6:28 AM CDT 9:00 PM CDT
Moon 1:14 AM CDT (9/27) 2:53 PM CDT (9/27)
Length of Visible Light 12h 45m
Length of Day
11h 59m
Last Quarter, 45% of the Moon is Illuminated
Sep 27
Last Quarter
Oct 4
New
Oct 11
First Quarter
Oct 18
Full
Oct 26
Last Quarter

Hourly Weather History & Observations

Time (CDT) Temp. Heat Index Dew Point Humidity Pressure Visibility Wind Dir Wind Speed Gust Speed Precip Events Conditions
12:46 AM 79 °F - 68 °F 61% 29.58 in 6 mi ENE 2.2 mph - -   Scattered Clouds
3:46 AM 74 °F - 67 °F 74% 29.61 in 6 mi Calm Calm - -   Scattered Clouds
5:40 AM 71.6 °F - 51.8 °F 50% 29.89 in 10.0 mi Calm Calm - N/A   Clear
6:40 AM 71.6 °F - 51.8 °F 50% 29.60 in 10.0 mi Calm Calm - N/A   Clear
6:46 AM 71 °F - 66 °F 78% 29.66 in 6 mi NE 2.2 mph - -  
7:40 AM 69.8 °F - 53.6 °F 56% 29.93 in 8.0 mi Calm Calm - N/A   Clear
8:40 AM 75.2 °F - 55.4 °F 50% 29.95 in 8.0 mi Calm Calm - N/A   Clear
9:40 AM 77.0 °F - 55.4 °F 47% 29.66 in 6.0 mi Calm Calm - N/A   Clear
9:50 AM 77 °F - 64 °F 56% 29.73 in 19 mi SE 4.5 mph - -  
10:40 AM 80.6 °F 81.1 °F 59.0 °F 48% 29.97 in 7.0 mi East 8.1 mph - N/A   Clear
11:42 AM 82.4 °F 82.0 °F 57.2 °F 42% 29.96 in 8.0 mi ESE 8.1 mph - N/A   Clear
12:40 PM 84.2 °F 83.5 °F 57.2 °F 40% 29.65 in 8.0 mi SE 4.6 mph - N/A   Clear
12:50 PM 89 °F - 72 °F 47% 29.70 in 19 mi ESE 2.2 mph - -  
1:40 PM 87.8 °F 86.5 °F 57.2 °F 35% 29.92 in 10.0 mi Calm Calm - N/A   Scattered Clouds
2:47 PM 89.6 °F 88.1 °F 57.2 °F 33% 29.88 in 10.0 mi South 9.2 mph - N/A   Scattered Clouds
3:48 PM 94 °F - 72 °F 39% 29.57 in 19 mi SE 4.5 mph - -   Partly Cloudy
3:48 PM 93.2 °F 91.9 °F 57.2 °F 30% 29.52 in 10.0 mi SE 9.2 mph - N/A   Mostly Cloudy
4:46 PM 95.0 °F 93.7 °F 57.2 °F 28% 29.82 in 10.0 mi Calm Calm - N/A   Mostly Cloudy
5:47 PM 93.2 °F 91.9 °F 57.2 °F 30% 29.81 in 10.0 mi NNE 5.8 mph - N/A   Mostly Cloudy
6:50 PM 93.2 °F 91.9 °F 57.2 °F 30% 29.50 in 10.0 mi ENE 9.2 mph - N/A   Mostly Cloudy
6:58 PM 93 °F - 71 °F 40% 29.50 in 19 mi SE 6.7 mph - -   Scattered Clouds
7:48 PM 87.8 °F 86.1 °F 55.4 °F 33% 29.82 in 10.0 mi SE 8.1 mph - N/A   Mostly Cloudy
8:48 PM 84.2 °F 83.5 °F 57.2 °F 40% 29.84 in 10.0 mi SSE 5.8 mph - N/A   Mostly Cloudy
9:45 PM 84 °F - 67 °F 48%  in 6 mi South 4.5 mph - -   Partly Cloudy
9:46 PM 84.2 °F 83.5 °F 57.2 °F 40% 29.56 in 10.0 mi SE 6.9 mph - N/A   Mostly Cloudy
10:43 PM 80.6 °F 81.1 °F 59.0 °F 48% 29.91 in 8.0 mi East 23.0 mph - N/A   Mostly Cloudy
11:42 PM 75.2 °F - 60.8 °F 61% 29.95 in 8.0 mi ESE 13.8 mph - N/A   Mostly Cloudy